User: anonymous   Login
Location: Cul de Sac
(18.0387°N, 63.0654°W)
Time: 11:30:26
(UTC+00:00)
Language:

SRMSAT - Orbit

View from above orbital plane
View from above orbital plane
View from above satellite
View from above satellite

Ground track
Ground track

The orbit data is extracted from the following two-line orbital elements,

1 37841U 11058D   21269.70704609  .00000318  00000-0  29480-4 0  9990
2 37841  19.9734  49.0894 0011887 326.6422  61.2825 14.10704830513957
Epoch (UTC): 26 September 2021 16:58:08
Eccentricity: 0.0011887
inclination: 19.9734°
perigee height: 848 km
apogee height: 865 km
right ascension of ascending node: 49.0894°
argument of perigee: 326.6422°
revolutions per day: 14.10704830
mean anomaly at epoch: 61.2825°
orbit number at epoch: 51395

The dashed part of the orbit path shows where the satellite is in the earth's shadow,  

DLR